Station RPRN6 - Rochester Coast Guard, NY Image indicating link to RSS feed of recent meteorological observations for station RPRN6


Conditions at RPRN6 as of
(11:00 pm EDT on 05/26/2024)
0300 GMT on 05/27/2024:
     

Click on the graph icon in the table below to see a time series plot of the last five days of that observation.

5-day plot - Wind Direction Wind Direction (WDIR):ESE ( 110 deg true )
5-day plot - Wind Speed Wind Speed (WSPD):5.7 m/s
5-day plot - Wind Gust Wind Gust (GST):7.2 m/s
5-day plot - Atmospheric Pressure Atmospheric Pressure (PRES):1009.1 mb
5-day plot - Pressure Tendency Pressure Tendency (PTDY): -1.7 mb ( Falling )
5-day plot - Air Temperature Air Temperature (ATMP): 19.0 °C
5-day plot -  Wind Speed, Wind Gust and Atmospheric Pressure Combined plot of Wind Speed, Gust, and Air Pressure
Previous observations
TIME
(EDT)
5-day plot - Wind Direction
WDIR
 
5-day plot - Wind Speed
WSPD
m/s
5-day plot - Wind Gust
GST
m/s
5-day plot - Wave Height
WVHT
m
5-day plot - Dominant Wave Period
DPD
sec
5-day plot - Average Wave Period
APD
sec
5-day plot - Mean Wave Direction
MWD
 
5-day plot - Atmospheric Pressure
PRES
mb
5-day plot - Pressure Tendency
PTDY
mb
5-day plot - Air Temperature
ATMP
°C
5-day plot - Water Temperature
WTMP
°C
5-day plot - Dew Point
DEWP
°C
5-day plot - Salinity
SAL
psu
5-day plot - Visibility
VIS
km
5-day plot - Tide (above MLLW)
TIDE
m
2024-05-26 10:50 pmESE 6.7 7.2----1009.1- 19.0-----
2024-05-26 10:40 pmESE 4.6 5.7----1009.5- 18.9-----
2024-05-26 10:30 pmESE 5.1 5.1----1009.8- 18.9-----
2024-05-26 10:20 pm SE 4.6 5.7----1010.2- 18.9-----
2024-05-26 10:10 pmESE 5.1 6.2----1010.2- 19.1-----
2024-05-26 10:00 pmESE 5.7 6.2----1010.2 -1.7 19.0-----
2024-05-26 09:50 pmESE 4.6 5.7----1010.2- 18.9-----
2024-05-26 09:40 pm SE 5.1 6.7----1010.2- 18.8-----
2024-05-26 09:30 pm SE 4.6 5.1----1010.2- 18.4-----
2024-05-26 09:20 pm SE 4.6 5.7----1010.2- 18.1-----
2024-05-26 09:10 pmESE 5.1 6.2----1010.2- 18.3-----
2024-05-26 09:00 pmESE 4.6 6.7----1010.5 -2.0 18.2-----
2024-05-26 08:50 pmESE 5.7 8.8----1010.8- 18.2-----
2024-05-26 08:40 pm E 7.7 10.8----1010.2- 18.2-----
2024-05-26 08:30 pm E 9.3 10.8----1010.2- 18.1-----
2024-05-26 08:20 pm E 9.8 10.8----1010.8- 18.0-----
2024-05-26 08:10 pm E 9.3 11.3----1010.8- 17.9-----
2024-05-26 08:00 pm E 9.8 10.8----1010.8 -2.4 17.9-----
2024-05-26 07:50 pm E 7.7 9.3----1011.2- 17.8-----
2024-05-26 07:40 pm E 7.2 8.2----1011.5- 17.8-----
2024-05-26 07:30 pm E 6.7 8.2----1011.9- 17.9-----
2024-05-26 07:20 pm E 6.2 7.2----1011.9- 17.9-----
2024-05-26 07:10 pm E 6.7 7.7----1011.9- 18.0-----
2024-05-26 07:00 pm E 5.7 6.7----1011.9 -2.0 18.0-----
2024-05-26 06:50 pm E 3.6 4.6----1012.2- 18.2-----
2024-05-26 06:40 pmESE 3.1 4.6----1012.2- 18.2-----
2024-05-26 06:30 pmESE 3.1 3.6----1012.2- 18.2-----
2024-05-26 06:20 pmESE 2.6 3.6----1012.2- 18.2-----
2024-05-26 06:10 pmESE 3.1 3.6----1012.2- 18.2-----
2024-05-26 06:00 pm E 3.6 4.1----1012.5 -2.1 18.0-----
2024-05-26 05:50 pmESE 2.6 3.1----1012.5- 18.0-----
2024-05-26 05:40 pmESE 2.6 3.6----1012.5- 18.0-----
2024-05-26 05:30 pm E 3.1 4.6----1012.5- 18.0-----
2024-05-26 05:20 pm E 4.1 5.1----1012.5- 17.9-----
2024-05-26 05:10 pm E 3.6 4.6----1012.9- 17.9-----
2024-05-26 05:00 pmENE 3.6 4.6----1013.2 -1.7 17.8-----
2024-05-26 04:50 pmENE 3.1 4.1----1013.2- 17.7-----
2024-05-26 04:40 pm E 3.6 4.6----1013.5- 17.5-----
2024-05-26 04:30 pmENE 3.1 4.1----1013.5- 17.4-----
2024-05-26 04:20 pm E 3.6 4.6----1013.5- 17.3-----
2024-05-26 04:10 pmENE 3.1 4.6----1013.9- 17.1-----
2024-05-26 04:00 pmENE 3.6 4.1----1013.9 -1.3 17.1-----
2024-05-26 03:50 pmENE 3.6 4.6----1014.2- 16.9-----
2024-05-26 03:40 pmENE 3.6 4.1----1014.2- 16.7-----
2024-05-26 03:30 pmENE 3.6 4.6----1014.2- 16.4-----
2024-05-26 03:20 pmENE 4.1 4.6----1014.2- 16.1-----
2024-05-26 03:10 pmENE 4.1 5.1----1014.6- 16.1-----
2024-05-26 03:00 pm NE 4.6 5.1----1014.6 -1.0 16.3-----
2024-05-26 02:50 pm NE 3.1 3.6----1014.6- 16.2-----
2024-05-26 02:40 pm NE 3.6 4.1----1014.9- 16.2-----
2024-05-26 02:30 pmENE 3.6 4.1----1014.9- 16.5-----
2024-05-26 02:20 pmENE 4.1 4.6----1014.9- 16.5-----
2024-05-26 02:10 pmENE 4.1 4.6----1014.9- 16.5-----
2024-05-26 02:00 pmENE 4.1 5.1----1014.9 -1.0 16.3-----
2024-05-26 01:50 pmENE 4.6 5.1----1015.2- 16.3-----
2024-05-26 01:40 pmENE 4.6 5.7----1015.2- 16.3-----
2024-05-26 01:30 pmENE 4.6 5.7----1015.2- 16.3-----
2024-05-26 01:20 pmENE 4.6 5.7----1015.2- 16.2-----
2024-05-26 01:10 pmENE 5.1 5.7----1015.2- 16.2-----
2024-05-26 01:00 pm NE 4.6 5.1----1015.2 -1.1 16.3-----
2024-05-26 12:50 pm NE 4.1 5.1----1015.2- 16.3-----
2024-05-26 12:40 pm NE 4.6 5.7----1015.2- 16.1-----
2024-05-26 12:30 pm NE 5.1 5.7----1015.2- 16.1-----
2024-05-26 12:20 pm NE 4.1 4.6----1015.2- 16.3-----
2024-05-26 12:10 pmENE 3.6 4.6----1015.6- 16.3-----
2024-05-26 12:00 pm E 3.6 4.1----1015.6 -0.3 16.1-----
2024-05-26 11:50 amENE 2.6 3.6----1015.6- 16.0-----
2024-05-26 11:40 amENE 3.1 3.1----1015.6- 15.9-----
2024-05-26 11:30 amENE 2.6 3.6----1015.9- 15.8-----
2024-05-26 11:20 amENE 3.1 4.1----1015.9- 15.6-----
2024-05-26 11:10 amENE 3.6 3.6----1015.9- 15.6-----
2024-05-26 11:00 am NE 3.6 4.1----1015.9 +0.7 15.7-----
2024-05-26 10:50 am NE 3.6 3.6----1015.9- 15.8-----
2024-05-26 10:40 amNNE 2.6 2.6----1015.9- 16.0-----
2024-05-26 10:30 amNNW 1.5 1.5----1016.3- 16.1-----
2024-05-26 10:20 amNNW 1.5 2.1----1015.9- 16.1-----
2024-05-26 10:10 am W 0.5 2.6----1016.3- 15.8-----
2024-05-26 10:00 amWNW 2.1 2.6----1016.3 +1.1 15.9-----
2024-05-26 09:50 amNNW 1.5 2.1----1015.6- 16.0-----
2024-05-26 09:40 am W 0.5 2.1----1015.9- 16.0-----
2024-05-26 09:30 amNNE 1.0 1.5----1016.3- 16.0-----
2024-05-26 09:20 am N 1.5 2.1----1016.3- 15.8-----
2024-05-26 09:10 amNNW 2.1 2.6----1016.3- 15.8-----
2024-05-26 09:00 amNNW 2.1 2.6----1015.9 +1.3 15.5-----
2024-05-26 08:50 amNNW 2.6 4.1----1015.6- 15.3-----
2024-05-26 08:40 amNNW 3.1 4.1----1015.6- 15.2-----
2024-05-26 08:30 amNNW 3.6 4.1----1015.9- 15.3-----
2024-05-26 08:20 amNNW 3.1 4.1----1015.6- 15.2-----
2024-05-26 08:10 amNNW 3.6 4.1----1015.6- 15.2-----
2024-05-26 08:00 am N 3.6 4.1----1015.2 +1.3 15.2-----
2024-05-26 07:50 am N 3.1 3.6----1015.2- 15.2-----
2024-05-26 07:40 am N 3.1 3.6----1015.2- 15.5-----
2024-05-26 07:30 am NW 2.6 4.1----1015.2- 15.9-----
2024-05-26 07:20 am NW 3.6 4.1----1015.2- 15.9-----
2024-05-26 07:10 amWNW 2.1 2.6----1015.2- 15.9-----
2024-05-26 07:00 am W 2.1 2.1----1015.2 +1.7 15.8-----
2024-05-26 06:50 am W 2.1 3.1----1015.2- 15.9-----
2024-05-26 06:40 am W 2.6 3.1----1014.9- 15.9-----
2024-05-26 06:30 amWNW 2.6 3.6----1014.6- 15.8-----
2024-05-26 06:20 am W 2.1 3.1----1014.6- 15.7-----
2024-05-26 06:10 am W 2.1 2.6----1014.6- 15.6-----
2024-05-26 06:00 am W 2.1 3.1----1014.6 +1.1 15.6-----
2024-05-26 05:50 am W 2.1 2.6----1014.2- 15.8-----
2024-05-26 05:40 am W 2.1 2.6----1014.2- 15.9-----
2024-05-26 05:30 am W 2.6 3.1----1013.9- 16.0-----
2024-05-26 05:20 am W 2.6 3.1----1013.9- 16.1-----
2024-05-26 05:10 am W 2.1 2.6----1013.9- 16.2-----
2024-05-26 05:00 amWSW 2.1 2.6----1013.9 +0.7 16.4-----
2024-05-26 04:50 amWSW 1.5 3.1----1013.5- 16.3-----
2024-05-26 04:40 amWSW 2.6 3.1----1013.9- 16.2-----
2024-05-26 04:30 amWSW 2.6 3.1----1013.9- 16.2-----
2024-05-26 04:20 am W 2.1 2.6----1013.9- 16.2-----
2024-05-26 04:10 amWSW 1.5 2.1----1013.5- 16.2-----
2024-05-26 04:00 amWSW 1.5 2.1----1013.5 +0.3 16.2-----
2024-05-26 03:50 am SW 2.1 2.6----1013.5- 16.0-----
2024-05-26 03:40 amWSW 2.1 2.6----1013.5- 15.9-----
2024-05-26 03:30 am W 1.0 2.1----1013.5- 15.7-----
2024-05-26 03:20 amSSW 1.5 2.6----1013.5- 15.3-----
2024-05-26 03:10 amSSW 2.1 2.6----1013.5- 15.3-----
2024-05-26 03:00 amSSW 2.1 2.1----1013.5 +0.6 15.2-----
2024-05-26 02:50 am S 1.0 1.5----1013.5- 15.2-----
2024-05-26 02:40 amSSW 1.0 1.5----1013.5- 15.2-----
2024-05-26 02:30 am S 0.5 1.0----1013.2- 15.4-----
2024-05-26 02:20 am S 1.0 2.1----1013.2- 15.6-----
2024-05-26 02:10 am SW 2.1 2.1----1013.2- 15.6-----
2024-05-26 02:00 amWSW 1.5 1.5----1013.2 +0.7 15.6-----
2024-05-26 01:50 amSSW 1.5 1.5----1013.2- 15.6-----
2024-05-26 01:40 am SW 1.5 2.1----1013.2- 15.7-----
2024-05-26 01:30 amWSW 1.5 1.5----1013.2- 15.7-----
2024-05-26 01:20 am W 1.5 1.5----1013.2- 15.9-----
2024-05-26 01:10 am SW 1.0 1.5----1013.2- 16.0-----
2024-05-26 01:00 am S 0.5 1.0----1013.2 +1.3 16.0-----
2024-05-26 12:50 am W 0.5 1.0----1013.2- 16.0-----
2024-05-26 12:40 am W 0.5 1.0----1013.2- 16.0-----
2024-05-26 12:30 amWSW 0.5 1.0----1013.2- 15.9-----
2024-05-26 12:20 amWSW 1.0 1.5----1012.9- 16.0-----
2024-05-26 12:10 am W 1.5 1.5----1012.9- 16.1-----
2024-05-26 12:00 am W 1.5 2.1----1012.9 +1.7 16.0-----
2024-05-25 11:50 pm W 1.5 1.5----1012.9- 16.1-----